Change the Weather History Date:

Tuesday, August 27, 2013

  Actual Average (KISP) Record (KISP)
Temperature  
Mean Temperature 76 °F 72 °F  
Max Temperature 84 °F 79 °F 91 °F (1993)
Min Temperature 69 °F 64 °F 52 °F (1989)
Degree Days  
Heating Degree Days 0 0  
Month to date heating degree days 0  
Since 1 June heating degree days 40  
Since 1 July heating degree days 2  
Cooling Degree Days 12 7  
Month to date cooling degree days 222  
Year to date cooling degree days 662  
Since 1 June cooling degree days 638  
Growing Degree Days 26 (Base 50)    
Moisture  
Dew Point 69 °F    
Average Humidity 86    
Maximum Humidity 96    
Minimum Humidity 61    
Precipitation  
Precipitation 0.15 in 0.12 in 2.19 in (2006)
Month to date precipitation 3.50  
Year to date precipitation 30.66  
Snow  
Snow 0.00 in 0.00 in - ()
Month to date snowfall 0.0  
Since 1 July snowfall 0.0  
Snow Depth -    
Sea Level Pressure  
Sea Level Pressure 29.86 in    
Wind  
Wind Speed 6 mph (WNW)    
Max Wind Speed 15 mph    
Max Gust Speed 22 mph    
Visibility 8 miles    
Events Rain    
T = Trace of Precipitation, MM = Missing Value Source: NWS Daily Summary

Daily Weather History Graph

Daily Weather History Graph

Search for Another Location

Airport or City:

Trip Planner

Search our weather history database for the weather conditions in past years. The results will help you decide how hot, cold, wet, or windy it might be!

Date:

Astronomy

Aug. 27, 2013 Rise Set
Actual Time 6:13 AM EDT 7:31 PM EDT
Civil Twilight 5:45 AM EDT 7:59 PM EDT
Nautical Twilight 5:11 AM EDT 8:33 PM EDT
Astronomical Twilight 4:35 AM EDT 9:09 PM EDT
Moon 11:19 PM EDT 1:12 PM EDT
Length of Visible Light 14h 14m
Length of Day
13h 17m
Waning Gibbous, 57% of the Moon is Illuminated
Aug 27
Waning Gibbous
Aug 28
Last Quarter
Sep 5
New
Sep 12
First Quarter
Sep 19
Full

Hourly Weather History & Observations

Time (EDT) Temp. Heat Index Dew Point Humidity Pressure Visibility Wind Dir Wind Speed Gust Speed Precip Events Conditions
12:56 AM 71.1 °F - 69.1 °F 93% 29.92 in 8.0 mi South 4.6 mph - 0.03 in   Overcast
1:56 AM 71.1 °F - 69.1 °F 93% 29.89 in 7.0 mi South 4.6 mph - 0.00 in Rain Light Rain
2:56 AM 71.1 °F - 68.0 °F 90% 29.88 in 3.0 mi WSW 4.6 mph - 0.02 in Rain Rain
3:03 AM 71.6 °F - 68.0 °F 88% 29.87 in 2.5 mi SW 3.5 mph - 0.00 in Rain Heavy Rain
3:11 AM 71.6 °F - 68.0 °F 88% 29.87 in 5.0 mi SW 5.8 mph - 0.01 in Rain Light Rain
3:56 AM 71.1 °F - 69.1 °F 93% 29.85 in 6.0 mi SSW 5.8 mph - 0.04 in Rain Light Rain
4:56 AM 71.1 °F - 69.1 °F 93% 29.83 in 7.0 mi SW 8.1 mph - 0.03 in   Overcast
5:56 AM 71.1 °F - 69.1 °F 93% 29.82 in 6.0 mi SW 3.5 mph - 0.03 in Rain Light Rain
6:56 AM 71.1 °F - 69.1 °F 93% 29.82 in 5.0 mi SW 4.6 mph - 0.00 in   Overcast
7:21 AM 71.6 °F - 69.8 °F 94% 29.82 in 6.0 mi WSW 4.6 mph - N/A   Overcast
7:43 AM 71.6 °F - 69.8 °F 94% 29.83 in 5.0 mi Calm Calm - N/A   Overcast
7:56 AM 72.0 °F - 70.0 °F 93% 29.83 in 5.0 mi Calm Calm - N/A   Overcast
8:38 AM 71.6 °F - 69.8 °F 94% 29.83 in 5.0 mi WNW 3.5 mph - N/A   Overcast
8:56 AM 72.0 °F - 69.1 °F 91% 29.83 in 5.0 mi North 8.1 mph - N/A   Overcast
9:56 AM 71.1 °F - 69.1 °F 93% 29.84 in 10.0 mi North 8.1 mph - 0.00 in   Overcast
10:10 AM 71.6 °F - 69.8 °F 94% 29.85 in 10.0 mi North 10.4 mph - N/A   Overcast
10:27 AM 71.6 °F - 69.8 °F 94% 29.85 in 10.0 mi North 9.2 mph - N/A   Overcast
10:37 AM 71.6 °F - 69.8 °F 94% 29.85 in 10.0 mi North 10.4 mph - N/A   Overcast
10:51 AM 71.6 °F - 69.8 °F 94% 29.85 in 10.0 mi North 9.2 mph - N/A   Overcast
10:56 AM 72.0 °F - 69.1 °F 91% 29.85 in 10.0 mi North 9.2 mph - N/A   Overcast
11:37 AM 75.2 °F - 69.8 °F 83% 29.85 in 10.0 mi North 11.5 mph 20.7 mph N/A   Overcast
11:56 AM 75.0 °F - 69.1 °F 82% 29.85 in 10.0 mi North 11.5 mph - N/A   Overcast
12:56 PM 78.1 °F - 70.0 °F 76% 29.85 in 10.0 mi North 15.0 mph 20.7 mph N/A   Mostly Cloudy
1:56 PM 81.0 °F 84.4 °F 70.0 °F 69% 29.86 in 10.0 mi North 15.0 mph 20.7 mph N/A   Mostly Cloudy
2:04 PM 80.6 °F 83.9 °F 69.8 °F 70% 29.86 in 10.0 mi North 15.0 mph 21.9 mph N/A   Scattered Clouds
2:56 PM 82.0 °F 85.5 °F 69.1 °F 65% 29.84 in 10.0 mi North 12.7 mph 17.3 mph N/A   Partly Cloudy
3:56 PM 82.9 °F 86.5 °F 69.1 °F 63% 29.84 in 10.0 mi North 12.7 mph 18.4 mph N/A   Clear
4:56 PM 84.0 °F 87.8 °F 69.1 °F 61% 29.83 in 10.0 mi North 8.1 mph - N/A   Clear
5:56 PM 82.9 °F 86.5 °F 69.1 °F 63% 29.85 in 10.0 mi NNW 5.8 mph - N/A   Scattered Clouds
6:56 PM 73.9 °F - 66.9 °F 79% 29.86 in 10.0 mi SSE 6.9 mph - N/A   Mostly Cloudy
7:56 PM 72.0 °F - 66.9 °F 84% 29.88 in 10.0 mi SE 3.5 mph - N/A   Clear
8:56 PM 71.1 °F - 68.0 °F 90% 29.90 in 10.0 mi SSW 3.5 mph - N/A   Clear
9:56 PM 71.1 °F - 68.0 °F 90% 29.90 in 10.0 mi South 4.6 mph - N/A   Partly Cloudy
10:56 PM 69.1 °F - 68.0 °F 96% 29.92 in 9.0 mi Calm Calm - N/A   Clear
11:56 PM 70.0 °F - 68.0 °F 93% 29.91 in 10.0 mi Calm Calm - N/A   Mostly Cloudy